Regional Weather Roundup
Issued by NWS

Home | Current Version | Previous Version | Graphics & Text | Print | Product List | Glossary On
Versions: 1 2 3 4 5 6 7 8 9 10 11 12 13 14 15 16 17 18 19 20 21 22 23 24 25 26 27 28 29 30 31 32 33 34 35 36 37 38 39 40 41 42 43 44 45 46 47 48 49 50
000
ASUS43 KDMX 231007
RWRIA

WEATHER ROUNDUP FOR IOWA
NATIONAL WEATHER SERVICE DES MOINES IA
500 AM CDT SAT AUG 23 2014

NOTE: "FAIR" INDICATES FEW OR NO CLOUDS BELOW 12,000 FEET WITH NO
SIGNIFICANT WEATHER AND/OR OBSTRUCTIONS TO VISIBILITY.

* - THESE STATIONS ARE NOT NWS STATIONS...THUS NOT UNDER NWS
QUALITY CONTROL.  THEY ALSO DO NOT REPORT WEATHER SUCH
AS PRECIPITATION OR FOG.

IAZ001>003-012>014-020>022-031>034-043>046-231100-
   NORTHWEST IOWA

CITY           SKY/WX    TMP DP  RH WIND       PRES   REMARKS
CARROLL *      HVY RAIN  72  72 100 CALM      29.96R
CHEROKEE *     RAIN      68  68 100 N6        29.96F
DENISON *      LGT RAIN  70  70 100 NE6       29.95F
LE MARS *      LGT RAIN  70  68  94 NE9       29.92F
ORANGE CITY *  RAIN      70  66  88 N3        29.96F
SHELDON *      HVY RAIN  68  68 100 W8G16     29.97R
SIOUX CITY     LGT RAIN  74  68  81 NE8       29.89F
SPENCER        CLOUDY    72  69  90 E7        29.96R THUNDER
STORM LAKE *   RAIN      68  68 100 NW12      29.99F
$$

IAZ055>058-069>071-079>083-090>094-231100-
   SOUTHWEST IOWA

CITY           SKY/WX    TMP DP  RH WIND       PRES   REMARKS
ATLANTIC *     DRIZZLE   72  72 100 N15       29.88F
AUDUBON *      RAIN      73  72  94 N5        29.94F
CLARINDA *     DRIZZLE   72  72 100 N8G18     29.93F
COUNCIL BLFS * PTCLDY    70  70 100 N12       29.90F
CRESTON *      HVY RAIN  73  72  94 NW13G23   29.98R VSB 1
HARLAN  *      CLOUDY    72  70  94 N9        29.99S
LAMONI         TSTM      77  75  93 CALM      29.90R FOG
RED OAK *      CLOUDY    72  70  94 N9        29.91F
SHENANDOAH *   MOCLDY    72  70  94 NE8       29.92F
$$

IAZ047>049-059>061-072>074-084-231100-
   CENTRAL IOWA

CITY           SKY/WX    TMP DP  RH WIND       PRES   REMARKS
AMES           CLOUDY    74  71  91 SE3       29.92F
ANKENY *       CLOUDY    77  75  94 SE6       29.92R
CHARITON *     HVY RAIN  73  72  94 N7        29.91R
DES MOINES     TSTM      73  70  90 W22       29.94R FOG
GRINNELL*      PTCLDY    70  68  94 E5        29.92R
KNOXVILLE *    CLOUDY    77  75  94 E5G12     29.90S FOG
MARSHALLTOWN   PTCLDY    71  69  93 E5        29.92R
PELLA *        PTCLDY    75  73  94 E7        29.90S
PERRY *        LGT RAIN  70  68  94 S9        29.91F
$$

IAZ004>006-015-016-023>025-035-036-231100-
   NORTH CENTRAL IOWA

CITY           SKY/WX    TMP DP  RH WIND       PRES   REMARKS
ALGONA *       MOCLDY    72  70  94 NE7       29.95F
CLARION *      CLEAR     72  72 100 E8        29.94F
ESTHERVILLE    CLOUDY    68  67  96 NE5       29.96R FOG
FORT DODGE *   CLOUDY    72  70  94 E6        29.94F
MASON CITY     CLOUDY    69  68  96 NE3       29.97R FOG
FOREST CITY *    N/A     70  70 100 E3        29.96S FOG
IOWA FALLS *     N/A     73  72  94 NE3       29.95F
$$

IAZ007>011-017>019-026>030-037>042-050>054-066-231100-
   NORTHEAST IOWA

CITY           SKY/WX    TMP DP  RH WIND       PRES   REMARKS
CEDAR RAPIDS   CLOUDY    74  74 100 CALM      29.91S FOG
CHARLES CITY * MOCLDY    72  70  94 CALM      29.97R
CLINTON *      CLOUDY    73  72  94 SE6       29.96F
DECORAH *      CLOUDY    72  70  94 CALM      29.95R FOG
DUBUQUE        CLOUDY    74  72  93 CALM      29.94F
MONTICELLO *   CLOUDY    75  75 100 SE6       29.93S
OELWEIN *      CLOUDY    75  75 100 CALM      29.97R FOG
WATERLOO       MOCLDY    73  72  96 E6        29.90F FOG
$$

IAZ064-065-067-068-078-231100-
   EAST CENTRAL IOWA

CITY           SKY/WX    TMP DP  RH WIND       PRES   REMARKS
DAVENPORT      CLOUDY    74  73  97 E7        29.94F FOG
IOWA CITY      CLOUDY    75  75 100 SE6       29.92R FOG
MT. PLEASANT * MOCLDY    75  73  94 CALM      29.92F FOG
MUSCATINE *    CLOUDY    75  73  94 CALM      29.91F FOG
QUAD CITIES    MOCLDY    75  73  93 E7        29.93F
$$

IAZ062-063-075>077-085>089-095>099-231100-
   SOUTHEAST IOWA

CITY           SKY/WX    TMP DP  RH WIND       PRES   REMARKS
BURLINGTON     CLEAR     76  75  97 E3        29.91F FOG
FAIRFIELD *    MOCLDY    75  73  94 NE9       29.91F FOG
FORT MADISON * CLEAR     75  75 100 CALM      29.92F FOG
KEOKUK *       PTCLDY    75  75 100 E7        29.90F FOG
OSKALOOSA *    CLOUDY    73  72  94 E7        29.91F
CENTERVILLE *  PTCLDY    75  75 100 CALM      29.91S
OTTUMWA        CLOUDY    76  75  97 E8        29.91S
WASHINGTON *   PTCLDY    73  73 100 SE5       29.91F FOG
$$

ABBREVIATIONS USED IN REMARKS
   TC - TEMPERATURES IN CELSIUS
  WCI - WIND CHILL INDEX
   HX - HEAT INDEX
  VSB - VISIBILITY
$$



USA.gov is the U.S. government's official web portal to all federal, state and local government web resources and services.